Weather Roundup
Issued by NWS

Home | Current Version | Previous Version | Text Only | Print | Product List | Glossary On
Versions: 1 2 3 4 5 6 7 8 9 10 11 12 13 14 15 16 17 18 19 20 21 22 23 24 25 26 27 28 29 30 31 32 33 34 35 36 37 38 39 40 41 42 43 44 45 46 47 48 49 50
000
NZUS93 KARX 022259
HRRWXR

CURRENT HOURLY OBSERVATIONS ACROSS
MUCH OF THE UPPER MISSISSIPPI VALLEY
NATIONAL WEATHER SERVICE LA CROSSE WI
600 PM CDT SUN AUG 02 2015


...SOUTHEAST MINNESOTA...


CITY           SKY/WX    TMP DP  RH WIND       PRES   REMARKS
ROCHESTER      MOSUNNY   80  64  58 NW15G29   29.74R
ROCHESTER/MAYO FAIR      82  62  50 NW12G21   29.73R
WINONA         SUNNY     82  63  51 NW10G25   29.68R
AUSTIN         SUNNY     84  63  48 NW16G22   29.74S
ALBERT LEA     SUNNY     82  61  47 NW9G21    29.76R
DODGE CENTER   SUNNY     81  61  50 NW16G26     N/A
PRESTON        MOSUNNY   81  63  54 NW10      29.74R
OWATONNA       SUNNY     81  63  54 NW20      29.75S
FARIBAULT      SUNNY     81  63  54 NW13G22   29.75R
$$

...ELSEWHERE IN MINNESOTA...


CITY           SKY/WX    TMP DP  RH WIND       PRES   REMARKS
MINNEAPOLIS    MOSUNNY   82  57  42 NW22G29   29.72R
INTNL FALLS    CLOUDY    69  44  40 NW16G25   29.72R
DULUTH         MOSUNNY   74  49  41 NW17G25   29.70R
RED WING       MOSUNNY   82  61  47 N8        29.69S
REDWOOD FALLS  SUNNY     80  55  42 NW16G25   29.81R
MANKATO        MOSUNNY   81  59  47 NW18      29.76S
WORTHINGTON    SUNNY     81  59  47 N14       29.85R
FAIRMONT       SUNNY     81  57  44 NW12G23   29.80R
$$

...SOUTHWEST WISCONSIN...


CITY           SKY/WX    TMP DP  RH WIND       PRES   REMARKS
LA CROSSE      MOSUNNY   87  65  47 NW18G26   29.65R
PRAIRIE DU CHI SUNNY     91  58  32 W15G26    29.66R HX  90
BOSCOBEL       SUNNY     92  61  35 W16G23    29.65R HX  92
LONE ROCK      NOT AVBL
PLATTEVILLE    MOSUNNY   88  74  63 W18G25    29.68S HX  96
FORT MC COY    PTSUNNY   85  63  46 NW18G26   29.66R
VIROQUA        FAIR      84  62  47 W17G25    29.69R
WIS DELLS      PTSUNNY   89  58  33 W21G30    29.61R
$$

...ELSEWHERE IN WISCONSIN...


CITY           SKY/WX    TMP DP  RH WIND       PRES   REMARKS
MILWAUKEE      PTSUNNY   90  67  46 SW28G35   29.59R HX  93
MADISON        MOSUNNY   89  69  51 W13G23    29.59F HX  93
GREEN BAY      LGT RAIN  65  63  93 N6        29.60S
EAU CLAIRE     MOSUNNY   80  60  50 NW14      29.68R
BLACK RVR FLS  FAIR      84  62  46 W14G26    29.66R
MEDFORD        PTSUNNY   74  62  66 NW13      29.67R
WAUSAU         MOSUNNY   78  62  57 NW10      29.62R
WIS RAPIDS     MOSUNNY   80  64  58 N14G26    29.65R
MARSHFIELD     SUNNY     79  58  48 NW16      29.66R
RICE LAKE      MOSUNNY   77  58  51 W10       29.71R
$$

...NORTHEAST IOWA...


CITY           SKY/WX    TMP DP  RH WIND       PRES   REMARKS
DECORAH        SUNNY     84  64  51 NW9G20    29.71R
MASON CITY     SUNNY     85  67  54 NW15      29.78R
CHARLES CITY   SUNNY     82  68  61 W10G18    29.75S
OELWEIN        SUNNY     86  73  66 W13G21    29.74S HX  93
$$

...ELSEWHERE IN IOWA...


CITY           SKY/WX    TMP DP  RH WIND       PRES   REMARKS
DES MOINES     PTSUNNY   79  65  62 SW23G39   29.77R THUNDER
IOWA CITY      SUNNY     90  75  61 SW10      29.74S HX 100
FORT DODGE     SUNNY     84  68  58 NW7       29.79F
$$

...NORTHERN ILLINOIS...


CITY           SKY/WX    TMP DP  RH WIND       PRES   REMARKS
CHICAGO-OHARE  MOSUNNY   89  69  51 SW16G32   29.65F HX  93
CHICAGO-MIDWAY MOSUNNY   92  68  45 SW24G35   29.67F HX  96
MOLINE         SUNNY     90  73  57 SW15G24   29.72F HX  98
ROCKFORD       MOSUNNY   88  71  57 SW22G31   29.68S HX  94
PEORIA         MOSUNNY   91  70  49 SW16      29.77F HX  96
$$

NOTE: "FAIR" INDICATES FEW OR NO CLOUDS BELOW 12,000 FEET WITH NO
SIGNIFICANT WEATHER AND/OR OBSTRUCTIONS TO VISIBILITY. WIND
SPEEDS ARE IN MILES-PER-HOUR.



USA.gov is the U.S. government's official web portal to all federal, state and local government web resources and services.